User: anonymous   Login
Location: Orinda
(37.8771°N, 122.1797°W)
Time: 10:08:58
(UTC+00:00)
Language:

Cosmos 1602 Rocket - Orbit

View from above orbital plane
View from above orbital plane
View from above satellite
View from above satellite

Ground track
Ground track

The orbit data is extracted from the following two-line orbital elements,

1 15332U 84105B   19347.18918178  .00000075  00000-0  61926-5 0  9990
2 15332  82.5361  58.3392 0019685 251.2434 167.0369 14.83404039901346
Epoch (UTC): 13 December 2019 04:32:25
Eccentricity: 0.0019685
inclination: 82.5361°
perigee height: 605 km
apogee height: 632 km
right ascension of ascending node: 58.3392°
argument of perigee: 251.2434°
revolutions per day: 14.83404039
mean anomaly at epoch: 167.0369°
orbit number at epoch: 90134

The dashed part of the orbit path shows where the satellite is in the earth's shadow,  

DLR